TimePDT,TemperatureF,Dew PointF,Humidity,Sea Level PressureIn,VisibilityMPH,Wind Direction,Wind SpeedMPH,Gust SpeedMPH,PrecipitationIn,Events,Conditions,WindDirDegrees,DateUTC
12:56 AM,37.0,14.0,39,29.92,10.0,NW,9.2,-,N/A,,Clear,310,2014-03-31 07:56:00
1:56 AM,35.1,12.9,40,29.90,10.0,NNW,3.5,-,N/A,,Clear,340,2014-03-31 08:56:00
2:56 AM,32.0,12.9,45,29.88,10.0,North,5.8,-,N/A,,Clear,360,2014-03-31 09:56:00
3:56 AM,30.0,14.0,51,29.87,10.0,NW,5.8,-,N/A,,Clear,320,2014-03-31 10:56:00
4:56 AM,28.9,14.0,54,29.87,10.0,WNW,5.8,-,N/A,,Clear,300,2014-03-31 11:56:00
5:56 AM,30.0,14.0,51,29.87,10.0,North,6.9,-,N/A,,Clear,360,2014-03-31 12:56:00
6:56 AM,30.9,14.0,50,29.86,10.0,NW,3.5,-,N/A,,Clear,310,2014-03-31 13:56:00
7:56 AM,37.0,12.9,37,29.86,10.0,West,6.9,-,N/A,,Clear,270,2014-03-31 14:56:00
8:56 AM,45.0,12.9,27,29.85,10.0,North,3.5,-,N/A,,Clear,360,2014-03-31 15:56:00
9:56 AM,50.0,12.9,23,29.83,10.0,Variable,3.5,-,N/A,,Clear,0,2014-03-31 16:56:00
10:56 AM,53.1,12.0,20,29.82,10.0,South,5.8,-,N/A,,Scattered Clouds,180,2014-03-31 17:56:00
11:56 AM,55.9,10.9,17,29.78,10.0,Variable,5.8,-,N/A,,Partly Cloudy,0,2014-03-31 18:56:00
12:56 PM,60.1,12.9,16,29.75,10.0,South,10.4,-,N/A,,Clear,170,2014-03-31 19:56:00
1:56 PM,57.9,12.9,17,29.75,10.0,West,24.2,33.4,N/A,,Clear,270,2014-03-31 20:56:00
2:56 PM,57.0,17.1,21,29.72,10.0,West,17.3,35.7,N/A,,Clear,270,2014-03-31 21:56:00
3:56 PM,57.0,15.1,19,29.69,10.0,WNW,26.5,34.5,N/A,,Mostly Cloudy,300,2014-03-31 22:56:00
4:10 PM,61.0,14.0,16,29.72,10.0,NNW,12.7,27.6,N/A,,Overcast,330,2014-03-31 23:10:00
4:56 PM,60.1,12.0,15,29.65,10.0,SSE,19.6,-,N/A,,Mostly Cloudy,150,2014-03-31 23:56:00
5:56 PM,55.9,12.0,18,29.67,10.0,SE,21.9,28.8,N/A,,Partly Cloudy,130,2014-04-01 00:56:00
6:56 PM,50.0,15.1,25,29.69,10.0,South,4.6,-,N/A,,Clear,170,2014-04-01 01:56:00
7:56 PM,48.0,19.0,32,29.68,10.0,SSE,15.0,-,N/A,,Clear,150,2014-04-01 02:56:00
8:56 PM,46.0,25.0,44,29.65,10.0,ESE,18.4,-,N/A,,Mostly Cloudy,120,2014-04-01 03:56:00
9:56 PM,46.0,26.1,46,29.66,10.0,SSE,17.3,25.3,N/A,,Overcast,160,2014-04-01 04:56:00
10:56 PM,39.9,33.1,77,29.70,10.0,South,11.5,-,0.00,Rain,Light Rain,190,2014-04-01 05:56:00
11:56 PM,37.9,35.1,89,29.72,10.0,East,6.9,-,0.01,Rain,Light Rain,100,2014-04-01 06:56:00